Theta_e
315 315 317 317 318 319 321 321 324 323 324 322 317 320 320 318 319 318 320 318 318 319 317 319 322 326 323 322 327 327 330 335 335 335 339 333 328 330 331 331 331 331 332 330 325 326 329 330 331 331 331 330 329 327 325 322 320 320 318 315 313 312 311 310 310 309 313 322 326 327 329 331 330 330 324 316 308 313 322 322 321 322 323 326 328 328 325 322 320 316 312 312 311 310 310 309 310
315 316 317 317 319 321 322 323 329 329 325 319 316 320 318 316 318 320 323 320 321 321 318 320 321 323 321 321 324 323 328 331 326 328 332 329 330 331 331 332 330 331 332 329 324 324 328 331 333 332 331 331 329 327 325 322 320 320 319 316 313 312 311 311 310 310 316 323 326 326 329 331 331 330 322 313 309 315 323 322 323 323 323 325 328 329 325 321 318 317 318 319 315 311 311 310 311
315 316 316 318 320 320 323 324 328 329 325 320 321 323 318 317 321 323 320 319 321 321 321 320 321 322 322 325 325 323 325 326 323 327 330 330 330 330 332 331 330 331 331 330 327 325 328 332 334 332 332 332 330 328 326 322 322 321 320 317 314 312 312 312 311 310 315 321 324 326 328 329 330 329 325 321 315 313 321 322 320 322 323 324 326 328 327 325 321 319 322 322 316 314 312 310 311
314 316 317 320 323 323 331 332 329 329 324 322 322 323 323 323 323 321 316 319 323 320 320 320 323 323 324 329 328 324 324 325 325 327 330 330 330 330 331 330 330 331 331 331 331 330 331 333 334 332 332 332 330 327 325 323 323 322 321 318 315 313 312 312 312 311 314 320 323 325 328 329 329 328 323 322 318 311 318 321 318 322 322 320 323 324 324 324 320 318 319 316 312 312 311 310 310
314 317 319 321 324 325 330 327 325 326 321 323 322 320 329 330 321 317 316 323 322 318 319 322 326 325 325 327 325 324 327 328 328 328 329 330 330 330 330 330 330 330 331 332 332 333 332 334 334 333 332 332 330 326 325 325 324 324 322 319 317 314 313 313 313 311 314 322 326 327 328 328 327 325 320 317 316 310 315 321 320 321 321 320 323 325 324 323 319 315 313 311 310 310 311 311 310
314 318 320 321 321 320 323 319 319 324 321 324 324 320 328 325 317 315 318 322 321 318 319 322 326 325 326 326 325 326 329 330 330 329 329 330 331 330 330 329 330 331 331 332 332 332 332 333 333 333 332 332 330 325 324 325 325 325 322 319 318 316 314 314 314 312 313 319 326 328 328 327 325 322 320 317 315 310 313 320 321 319 318 319 323 327 326 322 318 314 309 309 311 310 312 313 311
316 320 320 321 319 318 327 326 324 325 317 316 321 323 323 316 314 316 318 320 319 317 318 321 323 324 325 326 328 329 330 331 329 329 330 330 330 330 330 329 329 331 331 332 332 332 332 332 332 333 332 331 329 325 324 324 325 325 323 320 319 317 315 315 315 314 312 313 319 325 325 325 324 322 321 318 312 309 314 319 320 318 316 318 322 325 325 319 313 312 310 309 311 311 313 314 314
317 320 320 325 325 324 330 326 324 324 315 311 315 321 319 314 315 316 316 317 318 317 318 322 320 322 324 324 327 328 329 330 330 331 331 330 330 330 330 329 329 330 331 331 332 332 332 331 332 333 332 330 327 325 324 324 324 325 324 321 319 318 316 315 316 315 313 312 314 319 321 323 324 323 321 318 311 307 313 319 318 315 314 317 320 321 321 316 311 312 313 312 312 313 313 314 315
318 321 320 324 327 328 329 320 317 319 317 316 315 317 316 315 316 315 316 315 316 317 319 322 318 319 322 324 326 326 326 329 331 331 331 331 330 330 329 329 330 330 330 331 332 332 332 332 332 333 332 330 327 325 324 324 324 324 325 322 320 318 316 315 316 316 315 312 311 313 317 321 322 323 320 317 312 306 311 316 317 314 313 317 317 316 316 315 314 315 315 315 315 314 314 315 315
319 321 318 323 329 324 321 318 318 319 317 317 315 316 316 315 316 315 316 315 315 318 320 321 318 319 322 325 325 324 325 328 330 332 333 332 331 331 330 330 330 330 331 330 331 331 331 332 332 332 331 330 328 326 324 324 324 324 324 324 321 319 316 314 315 317 316 314 311 310 312 314 316 319 317 314 310 306 308 312 314 314 312 312 312 312 313 314 316 316 317 316 316 315 315 315 316
320 319 318 327 330 321 320 320 320 324 320 316 314 315 317 316 315 314 314 315 315 318 320 319 318 320 323 324 325 324 324 327 329 332 333 333 332 331 331 330 330 330 331 331 330 330 331 331 331 332 331 331 329 326 325 323 324 324 324 324 322 320 318 315 315 316 317 316 312 310 309 309 310 312 311 310 309 307 306 308 310 310 308 307 307 309 312 315 317 318 318 317 316 316 315 315 316
318 321 330 335 328 321 325 323 320 328 327 321 318 315 317 316 315 314 314 316 316 317 318 319 319 320 324 324 324 324 324 325 328 332 333 333 333 332 331 330 330 330 330 331 330 330 330 329 330 331 331 330 328 326 325 323 324 324 324 325 323 321 320 318 316 315 317 317 315 312 309 308 307 307 307 308 307 306 307 307 307 307 307 307 307 311 314 316 318 319 319 318 317 317 316 316 316
318 322 334 329 320 322 323 321 320 326 327 323 318 315 317 315 315 315 314 316 315 316 317 319 318 319 324 324 322 323 323 324 326 332 333 333 334 333 331 331 331 331 330 331 330 329 329 328 328 329 329 329 328 326 325 324 323 324 324 325 324 322 320 320 318 315 316 318 317 314 311 309 307 306 306 306 307 306 307 307 306 306 306 307 309 313 316 317 319 319 319 318 318 317 317 316 316
319 321 329 322 315 321 321 320 320 321 325 324 316 314 317 315 315 315 315 317 315 316 316 317 319 318 321 320 320 320 320 323 325 331 333 333 334 333 331 331 331 331 330 331 331 330 328 328 327 326 326 327 327 325 324 324 323 324 325 325 325 323 322 321 320 318 316 317 318 317 314 311 309 308 306 306 306 306 306 306 306 306 307 308 312 315 317 318 319 320 319 319 318 318 318 316 316
320 318 328 328 316 318 319 319 322 323 326 323 315 314 316 315 315 314 315 318 316 316 316 317 319 318 318 319 318 317 317 321 324 328 331 333 334 333 331 331 331 331 332 333 333 331 329 328 327 326 324 324 325 324 324 324 324 324 325 326 325 324 323 322 321 321 319 317 318 319 317 314 312 310 309 308 307 307 307 307 307 309 310 312 314 316 317 319 319 320 320 320 319 319 318 317 316
321 318 327 329 317 318 317 316 319 323 323 316 313 315 316 315 315 315 315 316 316 315 317 318 319 319 317 318 317 315 316 319 322 326 329 332 333 333 331 331 332 332 332 333 334 332 330 329 328 327 325 323 323 323 323 324 324 324 325 326 326 326 324 323 323 322 321 319 317 318 319 317 314 314 313 311 311 311 310 310 311 312 313 314 316 317 318 319 319 320 320 320 320 319 319 318 317
318 321 328 325 319 321 317 317 319 322 323 314 311 314 315 315 314 314 315 315 316 315 317 318 318 319 317 318 318 315 315 317 319 323 327 331 333 333 332 332 332 332 333 333 333 333 332 331 330 329 327 324 323 322 323 324 324 324 325 326 326 326 325 325 324 323 323 321 319 318 319 319 317 317 316 315 315 315 315 314 315 315 316 316 317 317 318 319 319 320 320 320 320 320 319 318 317
321 330 329 321 321 323 320 319 316 318 322 313 311 314 315 315 314 314 316 315 315 315 316 317 318 318 317 318 319 315 313 316 317 319 324 328 331 332 331 332 332 331 332 333 333 334 333 333 332 330 329 325 323 323 322 323 325 325 325 326 326 326 326 326 325 325 324 323 322 320 318 319 319 319 318 318 318 318 318 317 318 318 318 317 317 318 318 318 319 320 320 320 320 320 319 318 317
321 328 326 326 329 320 316 316 312 313 316 312 312 313 314 315 314 314 316 315 314 316 316 315 317 317 317 318 319 317 314 315 316 316 319 323 327 329 329 330 331 331 330 331 332 333 333 333 333 332 330 327 324 323 323 324 325 325 325 326 326 327 327 326 326 326 325 324 324 323 321 319 319 320 319 319 319 320 319 319 319 320 319 319 318 318 318 318 319 319 320 320 320 320 320 318 317
317 320 324 332 327 315 312 313 312 313 314 312 312 312 313 314 314 315 316 314 313 315 316 315 316 317 316 318 318 317 314 315 316 316 317 319 322 324 326 326 327 328 327 328 329 331 332 332 333 332 331 329 326 324 323 324 325 326 326 326 326 327 327 327 327 326 326 326 324 324 324 322 319 319 320 320 319 320 320 320 320 320 320 320 320 319 319 319 319 319 319 319 320 320 320 319 317
315 319 326 324 315 314 314 313 313 313 313 313 313 312 312 313 314 315 314 316 316 315 315 316 316 315 316 317 317 317 315 314 315 316 317 318 319 321 322 322 323 325 325 326 327 329 330 331 332 332 332 331 329 327 325 325 325 326 326 326 327 327 328 328 327 327 327 326 326 325 325 325 322 320 320 320 320 320 319 320 321 321 321 320 320 319 319 319 319 319 320 319 320 320 320 320 318
315 315 317 313 311 315 314 312 314 313 313 313 312 312 313 313 314 314 314 318 319 315 316 316 316 315 315 316 316 317 315 314 315 315 316 316 317 318 319 321 323 325 324 323 323 324 327 329 330 331 332 332 331 330 328 327 326 327 327 326 327 327 328 328 328 328 327 327 327 326 326 326 325 324 321 319 320 321 320 320 320 321 321 320 320 320 319 319 319 319 319 319 319 320 320 320 319
318 314 311 311 311 313 313 312 313 313 314 313 312 313 313 313 313 313 313 316 317 315 316 315 316 316 315 316 316 316 315 314 314 314 315 314 315 316 317 318 321 322 322 321 319 321 323 326 328 329 330 331 331 332 331 330 329 329 328 327 327 328 328 329 329 329 328 328 327 327 327 326 326 326 324 321 320 320 321 321 321 320 320 320 320 320 320 319 319 319 319 319 319 319 320 320 320
319 318 311 311 312 312 313 313 313 313 313 314 313 314 313 313 314 313 312 315 316 315 315 315 315 316 315 316 315 315 315 315 314 314 314 314 315 315 316 317 319 320 320 319 318 318 320 322 324 327 328 329 330 331 331 331 331 331 330 329 329 328 329 329 330 329 329 329 328 327 327 327 326 326 326 325 322 320 320 321 321 321 321 321 320 320 320 320 319 319 319 319 319 319 319 320 320
317 318 311 311 312 312 313 312 312 312 312 313 314 313 312 313 313 311 313 315 315 315 314 314 315 315 315 315 315 315 315 315 314 314 314 314 316 316 317 317 318 319 319 318 317 317 318 320 322 324 326 327 328 330 330 331 332 332 331 331 330 329 329 330 330 330 330 329 329 329 328 327 327 327 327 326 326 323 321 321 321 322 322 321 321 320 320 320 320 319 319 319 319 319 319 320 320
313 314 312 311 311 311 312 312 312 312 313 313 313 313 312 312 312 313 314 314 315 315 314 314 315 316 315 315 315 315 315 315 315 314 315 314 315 316 316 317 317 317 317 317 317 317 317 318 320 322 323 324 326 328 329 330 331 332 331 331 331 330 330 330 331 331 331 330 330 330 329 328 327 327 327 327 327 326 325 324 322 322 322 322 321 321 321 320 320 319 318 318 318 318 319 319 320
312 312 311 312 312 312 312 313 312 313 313 312 314 314 312 311 313 316 316 314 314 315 314 314 315 316 315 315 315 315 315 315 315 315 315 315 315 315 315 315 316 315 315 316 316 316 316 316 317 319 321 322 323 326 326 328 329 331 331 331 331 331 331 330 331 332 331 331 331 330 330 329 328 327 328 328 328 328 328 327 325 324 323 323 322 322 321 321 320 320 319 318 317 318 318 319 319
312 312 313 312 311 312 312 313 313 313 313 312 314 313 312 312 313 316 315 314 315 314 315 314 314 316 316 315 315 315 315 315 315 316 315 315 315 315 315 315 315 315 315 315 315 316 316 316 316 317 318 319 321 323 324 325 326 328 330 330 330 330 331 331 331 331 332 332 332 331 331 330 329 328 327 328 329 328 328 328 327 327 325 324 323 323 322 322 321 320 319 319 318 318 318 318 319
312 313 315 314 313 314 311 311 312 312 314 312 312 314 315 315 315 315 314 314 315 314 315 315 315 315 315 315 315 315 315 315 316 316 315 315 315 314 315 315 315 315 315 315 315 316 315 315 316 316 316 317 318 320 321 323 323 325 328 329 329 329 330 331 330 331 331 332 332 332 332 331 330 329 328 328 329 329 328 328 327 327 326 326 325 325 324 323 323 322 321 320 319 318 317 318 319
313 312 315 317 316 315 311 310 312 312 313 312 311 314 319 319 313 313 313 314 314 314 315 315 315 315 315 315 315 315 315 315 316 316 316 315 315 315 315 315 315 315 315 315 315 315 315 315 315 315 315 316 316 317 319 320 320 322 325 326 327 328 329 330 329 330 330 331 332 332 332 332 331 330 329 327 328 328 328 328 327 326 326 325 326 326 326 326 325 324 323 322 320 319 318 318 318
316 311 316 320 314 316 313 309 311 313 313 312 311 313 319 318 311 311 313 313 313 314 314 315 315 315 315 315 315 315 315 315 315 315 316 315 316 315 315 315 315 315 315 315 315 315 315 315 315 315 315 315 315 316 317 319 321 320 321 324 325 326 327 328 329 329 329 329 331 332 332 331 331 331 330 328 328 328 328 328 328 327 326 325 326 325 325 325 325 325 324 323 321 319 319 318 318
320 311 319 320 312 317 317 308 309 313 313 311 311 314 319 316 311 311 312 312 313 313 314 314 314 314 315 315 315 315 315 315 315 315 316 315 316 315 315 315 315 315 315 315 315 314 315 314 315 315 315 315 314 315 315 317 321 321 320 324 327 329 327 326 327 328 329 329 329 329 329 329 329 330 330 329 328 327 327 327 327 327 327 327 326 326 326 325 325 324 323 323 322 320 319 318 318
322 315 320 320 314 318 317 311 308 310 313 312 311 314 319 317 312 312 312 312 313 313 314 314 313 314 314 315 315 315 315 315 315 315 315 315 315 315 315 315 315 315 315 315 314 314 315 314 314 315 314 314 314 315 315 315 317 318 318 321 328 330 326 321 322 324 327 330 330 330 329 328 328 329 329 329 328 328 327 327 326 326 326 326 325 326 326 326 325 325 324 323 323 322 319 317 317
319 317 319 318 317 317 316 316 309 308 313 314 313 314 318 318 311 312 313 312 313 313 314 314 314 314 314 315 315 315 315 315 315 315 315 315 315 315 315 315 315 315 315 315 315 314 314 314 314 314 314 314 314 314 315 315 315 317 318 319 322 324 323 324 325 323 324 327 329 330 329 329 330 330 329 328 328 328 327 326 326 326 327 327 327 327 327 327 326 325 325 324 324 323 321 319 318
318 317 317 316 315 314 316 319 312 310 314 315 316 315 318 319 312 312 313 312 313 313 314 314 315 315 315 315 315 315 316 315 316 316 316 315 316 315 315 316 315 315 315 315 315 315 314 314 314 314 314 315 315 314 315 315 316 317 319 321 321 321 323 328 330 328 329 329 327 327 328 331 333 332 331 331 328 325 325 326 325 325 326 326 326 327 328 327 326 326 325 325 324 323 322 320 319
319 319 320 321 320 316 316 318 311 309 315 317 318 318 318 320 316 313 313 312 311 312 313 314 314 315 315 315 315 315 315 316 316 315 316 315 315 316 315 316 316 315 316 315 315 315 315 315 315 315 315 315 315 315 315 315 316 317 318 320 321 320 322 326 327 327 331 332 330 329 327 328 331 331 331 333 331 326 324 327 329 327 327 327 326 326 328 328 327 326 325 325 324 323 321 320 319
318 319 322 322 321 318 315 316 310 306 314 318 317 319 318 318 317 312 311 311 309 310 312 314 315 315 314 314 314 315 315 315 315 314 314 314 314 315 315 316 316 316 315 316 316 315 315 315 315 315 315 315 315 315 315 315 315 316 317 318 318 318 319 321 322 322 325 329 334 335 329 326 331 332 331 332 331 327 326 328 329 329 329 328 327 327 328 328 327 326 324 324 324 323 322 321 320
316 318 321 319 317 318 314 314 312 307 312 317 315 318 318 317 318 312 309 310 310 311 312 314 315 315 315 315 314 315 314 314 314 314 314 314 314 314 314 315 315 316 316 316 316 316 316 316 316 316 316 316 316 316 316 316 316 315 315 316 316 317 318 319 320 320 320 324 329 330 326 327 332 333 331 330 329 329 330 328 327 327 328 327 327 328 329 327 326 326 324 323 323 322 322 321 321
319 317 319 320 317 317 314 313 313 310 312 318 317 318 318 317 317 312 308 309 311 312 312 313 314 314 314 315 315 315 315 315 315 314 314 314 314 314 313 314 314 315 316 316 316 316 316 316 316 316 316 316 316 316 316 316 316 316 316 316 317 319 320 321 322 323 322 321 322 323 322 321 325 330 332 329 327 327 328 328 328 326 324 325 326 327 328 327 326 325 324 324 323 321 322 322 321
320 320 320 319 316 317 318 314 313 311 311 315 317 316 317 316 317 315 308 306 309 311 311 312 312 313 314 314 314 314 314 315 314 314 315 314 314 314 313 313 314 314 315 315 316 316 316 316 316 316 316 316 316 316 316 316 316 316 317 318 319 320 322 323 325 325 325 324 323 325 326 323 323 326 328 327 327 326 324 324 326 324 322 325 327 328 328 327 325 322 322 324 323 321 321 322 321
317 325 328 322 320 320 317 314 315 314 311 312 314 315 323 325 325 325 314 305 307 309 310 311 312 312 313 314 314 314 314 314 315 315 315 315 314 314 314 314 314 314 314 315 315 315 316 316 316 316 316 316 316 316 316 316 316 317 317 318 320 321 322 323 324 324 324 324 324 325 326 325 326 327 327 326 327 328 326 324 324 323 323 324 326 326 325 324 322 321 320 322 323 322 321 322 322
314 323 327 324 327 323 317 316 318 319 315 311 310 315 331 335 329 328 321 313 313 309 306 310 313 313 311 313 314 314 314 314 314 314 314 315 315 315 315 314 315 314 314 314 314 315 315 315 315 316 316 316 316 316 316 316 316 316 317 317 319 320 321 321 321 320 320 321 322 322 322 322 322 324 326 326 325 326 329 330 328 328 327 328 327 326 325 324 322 321 322 323 323 322 320 320 320
315 316 317 319 326 324 320 319 316 318 314 308 309 315 323 326 323 322 321 320 320 313 307 308 311 312 311 312 313 313 314 313 313 314 314 315 315 315 315 315 315 315 315 314 314 314 314 315 315 315 316 316 316 316 316 316 316 317 317 317 317 318 318 318 318 319 320 321 322 322 322 321 320 320 322 324 323 324 327 329 329 327 326 327 327 326 325 323 321 320 321 323 323 321 320 319 319
316 314 315 321 326 323 324 323 320 319 313 312 318 318 315 318 318 317 316 318 320 318 315 310 308 312 313 314 314 314 314 314 314 314 314 314 314 314 315 316 316 315 315 315 315 315 315 316 316 316 316 316 316 316 316 316 316 316 317 317 318 318 318 318 319 320 321 322 322 322 322 322 322 321 321 322 323 323 324 325 326 325 324 323 323 323 323 322 322 321 319 320 321 321 320 319 319
316 311 315 320 322 324 328 328 325 317 310 318 324 313 312 321 322 318 313 314 317 319 319 313 308 312 314 314 315 314 314 314 314 314 314 314 315 315 316 316 316 316 316 316 315 316 316 316 316 316 316 317 316 316 316 317 316 316 317 317 317 317 317 318 319 320 321 321 321 321 321 321 321 322 322 323 323 324 324 324 324 324 323 324 326 326 325 325 324 322 320 319 320 321 321 320 320
312 307 313 316 318 322 324 324 323 315 312 324 323 311 311 319 325 324 314 312 318 320 320 313 308 312 315 314 314 313 314 314 314 315 315 315 316 316 316 316 316 316 316 316 316 316 316 316 316 317 317 317 317 317 317 317 317 317 316 316 316 316 317 317 318 319 319 320 320 320 320 320 321 321 321 321 322 322 322 321 321 322 322 322 324 325 325 325 324 324 324 323 321 321 321 320 320
307 312 318 316 320 323 323 323 320 314 319 326 318 312 312 312 323 327 315 313 317 317 320 317 311 313 315 316 316 315 315 316 316 316 316 316 316 315 316 316 317 317 317 317 317 317 317 316 316 316 317 317 316 317 316 316 316 316 316 316 316 316 316 316 316 317 317 317 318 318 318 319 319 319 319 319 319 318 318 318 318 320 320 320 320 320 321 320 320 321 321 322 322 322 321 320 319
310 321 321 315 320 322 323 326 318 313 324 322 312 311 311 310 321 324 316 316 315 312 317 320 315 313 314 315 316 317 316 315 315 316 316 316 315 315 316 316 316 317 317 317 317 317 317 317 317 316 316 316 316 316 316 316 316 315 315 315 315 315 314 314 314 315 315 315 315 316 316 316 316 316 316 316 316 315 315 315 315 316 317 318 320 320 320 320 320 320 319 320 320 320 321 321 320
314 319 320 318 320 318 321 327 319 317 322 313 309 311 310 311 317 316 315 317 313 308 310 314 312 311 314 315 315 316 316 315 315 315 315 315 315 315 315 316 316 316 316 317 317 317 317 316 317 316 316 316 316 316 316 316 316 315 315 315 314 314 314 314 313 313 313 314 314 314 314 314 314 314 314 314 314 313 313 313 313 313 313 314 315 316 318 319 320 320 320 320 320 319 319 319 320
314 314 318 321 320 315 318 321 314 315 318 310 307 311 313 315 313 312 315 311 309 307 307 309 310 311 314 314 315 316 315 315 315 315 315 315 315 315 315 316 316 316 316 316 316 316 316 316 316 316 316 316 316 316 316 316 316 316 316 315 315 314 314 313 313 313 313 313 313 313 313 313 313 313 313 312 312 312 312 312 312 312 312 311 312 312 313 314 316 318 318 319 319 319 319 318 318
313 314 314 317 323 322 319 320 318 318 319 312 308 312 320 320 311 311 312 307 307 309 308 309 310 312 314 313 315 316 315 316 315 315 315 314 316 316 316 315 315 316 316 316 316 316 316 316 316 316 315 315 315 315 316 316 316 316 316 316 315 315 315 314 314 314 313 313 313 313 313 313 313 312 312 312 312 312 312 312 311 311 311 311 310 310 310 311 313 314 315 316 317 317 318 318 318
313 311 311 313 321 324 315 312 316 316 314 314 311 315 322 318 311 311 307 305 306 307 307 310 311 313 314 313 314 313 314 314 314 315 315 315 316 316 316 316 315 316 316 316 316 316 316 316 316 316 316 316 316 316 316 315 316 316 316 316 316 316 315 315 315 315 314 314 314 314 313 313 313 313 313 312 312 312 312 312 312 311 311 311 310 310 310 309 310 311 312 314 314 315 316 317 317
313 311 315 316 314 320 316 307 308 309 310 315 313 315 319 314 313 316 312 310 311 309 309 310 311 313 313 313 312 311 312 313 314 315 314 316 317 317 317 316 316 316 316 316 316 316 316 316 316 317 316 316 316 316 316 316 316 316 315 316 316 316 316 315 315 315 315 315 314 314 314 313 313 313 313 313 313 313 313 312 312 312 312 311 311 310 310 310 309 308 309 310 311 313 313 313 314
316 316 317 312 308 315 318 312 314 314 313 317 314 313 317 314 315 320 316 312 314 315 312 309 310 313 312 312 312 311 312 312 313 314 314 317 318 317 317 316 316 317 316 316 316 316 316 316 317 317 316 317 317 317 317 317 316 316 316 316 315 316 316 315 316 315 315 315 315 315 314 314 314 313 313 313 313 314 314 314 314 313 313 312 312 311 310 310 309 308 307 308 310 313 313 313 314
314 316 312 311 314 317 315 312 318 317 313 319 318 312 311 312 316 321 315 313 319 318 314 312 313 313 312 312 312 312 313 313 313 314 315 317 317 316 317 316 316 316 316 316 316 316 316 316 317 317 317 317 317 317 317 317 317 317 316 316 316 316 316 316 315 315 315 315 315 315 315 315 315 314 314 314 314 314 314 314 314 314 314 313 313 312 311 310 309 308 308 308 310 313 314 315 315
308 309 307 313 322 320 315 313 315 315 313 317 320 317 316 313 316 320 313 315 323 321 319 317 312 311 312 312 312 313 315 316 316 316 316 316 316 316 316 316 316 316 316 316 316 316 316 316 316 316 316 317 316 317 317 317 317 317 316 316 316 315 315 315 315 315 315 315 315 315 315 315 315 314 315 314 315 315 315 315 315 314 314 314 314 313 312 311 310 309 308 308 309 311 313 314 315
310 311 310 314 315 313 314 313 313 317 317 318 317 317 321 319 315 315 313 317 321 319 320 317 308 309 313 312 313 315 315 316 316 316 316 315 315 316 315 315 315 315 315 315 315 316 316 316 316 316 316 316 316 317 317 317 317 317 317 317 316 315 315 315 315 315 315 315 315 315 315 315 315 315 315 315 315 315 315 315 314 315 314 314 314 313 312 312 311 310 309 308 308 309 311 313 313
312 313 313 314 313 313 315 313 311 312 314 318 317 313 318 323 317 314 315 315 313 308 309 311 309 312 315 314 315 316 315 316 315 315 316 315 315 315 314 315 315 315 315 315 315 315 315 315 316 316 316 316 316 316 316 316 317 317 317 316 316 316 315 315 315 315 315 315 315 315 315 315 315 315 315 315 315 315 315 315 315 315 315 314 314 313 312 312 311 310 309 309 308 308 309 310 311
Wind_Speed
2 2 1 0 1 1 2 3 1 3 4 2 1 2 2 2 2 2 2 1 1 2 4 5 12 16 7 3 6 5 7 7 6 4 2 7 18 20 17 17 16 16 15 16 17 18 17 15 13 12 12 11 10 10 11 11 12 13 14 14 14 14 14 14 14 14 14 16 18 16 14 13 11 11 13 13 13 15 16 17 17 18 18 19 19 19 17 16 16 17 17 16 15 14 14 14 14
1 2 1 1 1 1 1 4 2 3 5 2 2 2 2 2 1 5 7 5 3 4 8 12 14 13 5 6 8 6 5 5 7 5 7 16 22 20 18 17 17 16 16 17 18 18 17 15 13 12 11 11 10 10 11 11 12 12 13 13 14 14 14 14 14 14 14 16 18 17 14 13 11 11 14 14 13 14 16 16 17 17 18 18 19 18 17 16 16 17 17 16 15 15 14 14 15
1 2 1 2 0 2 2 4 2 1 4 2 4 3 1 1 5 7 7 5 8 14 15 13 10 7 3 5 5 3 3 4 7 8 15 22 22 21 19 18 17 16 16 17 17 17 16 14 13 11 11 11 9 10 10 10 10 11 12 12 13 14 14 14 14 14 14 16 18 17 14 12 12 10 9 10 11 12 15 15 16 17 17 17 18 18 17 17 16 17 17 16 16 16 15 15 16
1 3 2 2 1 3 4 3 2 4 3 3 3 4 3 5 7 6 5 9 16 16 10 7 5 3 1 2 3 2 3 5 9 12 20 24 20 21 20 18 18 17 16 16 16 16 15 14 12 11 11 10 9 9 9 8 9 10 10 12 13 13 14 14 14 14 14 15 17 16 14 12 11 9 7 8 9 10 13 14 15 16 16 16 17 17 16 16 15 15 15 15 16 16 16 16 16
2 3 3 2 1 1 3 3 2 4 3 4 2 4 5 6 7 5 7 14 14 6 3 4 3 4 4 4 3 2 3 6 12 17 22 23 20 20 19 19 18 17 16 15 15 15 15 14 12 11 10 9 8 8 7 7 8 8 10 11 12 12 13 14 14 14 14 15 17 15 13 11 9 7 7 8 8 9 12 14 15 15 15 16 17 16 16 15 14 14 15 16 16 15 16 16 16
4 5 3 2 3 2 3 2 2 2 5 5 3 5 5 6 8 8 9 13 8 2 1 3 3 5 5 5 4 5 6 7 13 18 21 22 20 19 19 19 18 17 16 16 15 14 14 14 12 11 10 9 8 7 6 6 7 7 9 10 11 12 12 14 14 15 14 15 16 14 11 9 8 6 6 7 8 9 11 13 14 13 14 15 16 16 16 15 15 16 17 17 17 16 15 15 15
5 4 1 3 4 3 3 3 4 2 2 4 3 4 5 8 10 10 9 8 4 3 3 3 6 6 4 4 5 8 7 8 14 19 20 21 21 19 19 19 18 17 16 16 15 14 14 13 13 11 10 10 8 6 6 6 6 6 8 10 11 11 12 13 14 14 14 13 14 13 11 9 9 8 7 8 10 10 11 12 12 12 13 14 15 16 16 15 15 17 18 18 18 17 15 15 14
5 3 2 3 3 4 3 3 3 2 1 3 3 4 7 12 13 11 7 4 3 4 4 7 7 3 3 3 4 7 7 10 16 19 20 20 21 20 19 19 18 17 16 15 15 15 13 12 12 11 10 9 8 7 6 6 6 6 7 9 10 10 11 12 13 13 13 13 12 12 11 10 11 9 7 9 10 11 11 12 11 11 12 13 14 15 15 15 17 18 18 18 18 17 16 14 13
5 2 2 3 2 3 3 2 1 2 2 4 3 3 8 14 13 10 6 2 3 4 6 10 3 2 5 4 4 8 7 12 17 19 20 20 21 20 19 18 17 17 16 15 14 14 14 12 12 11 10 9 8 7 6 6 6 6 7 8 9 9 10 10 11 12 12 12 12 11 12 11 11 9 8 9 9 10 11 10 11 11 11 13 14 15 15 16 18 18 18 18 18 17 16 14 13
3 2 2 3 2 3 2 1 1 1 3 4 3 3 9 13 12 9 6 2 4 5 9 10 1 1 8 4 5 8 9 15 18 20 19 20 21 19 18 18 17 16 15 15 14 13 13 13 12 11 10 9 8 7 6 6 6 6 6 7 8 8 9 9 10 10 11 12 11 10 11 10 10 9 9 9 10 10 10 9 10 10 11 13 14 15 16 17 17 18 18 17 17 16 15 14 13
2 3 3 4 3 2 2 3 3 3 4 4 2 4 9 13 10 6 4 4 5 6 10 8 1 8 9 3 7 8 12 15 17 20 18 20 20 19 18 18 17 15 14 14 13 13 13 12 12 11 11 9 8 7 6 5 5 6 6 6 7 8 8 9 9 9 10 10 10 10 9 9 9 9 9 9 10 10 9 8 9 10 11 13 14 15 16 16 17 17 17 17 16 16 15 14 12
2 2 4 4 3 2 3 3 2 5 6 4 1 4 9 12 8 5 6 6 7 6 9 7 4 9 5 1 7 10 14 15 17 19 17 19 20 19 18 17 17 15 14 13 13 14 13 12 12 11 11 10 9 7 5 5 4 4 5 5 6 6 7 8 8 8 8 9 9 9 9 9 10 10 10 10 10 10 9 8 8 9 10 11 13 14 14 15 15 16 16 16 16 15 15 13 12
3 2 5 3 2 2 3 3 1 4 5 3 3 5 10 12 7 9 9 7 8 6 7 8 6 8 4 2 7 12 16 15 18 19 17 18 18 19 19 17 17 16 15 14 13 13 13 12 12 12 11 11 10 8 6 5 4 3 3 4 4 5 6 7 7 7 7 7 8 8 8 9 9 9 10 10 10 10 9 8 8 9 9 10 11 12 13 13 14 14 15 15 15 15 14 13 12
4 4 5 2 2 2 4 3 1 1 3 5 4 7 12 11 6 10 12 7 7 7 6 8 9 7 3 3 6 15 17 17 20 20 18 17 18 19 19 18 17 16 15 14 13 12 13 12 12 12 11 11 11 10 7 6 5 4 3 3 3 4 5 5 6 7 6 6 7 7 7 7 8 8 9 10 9 9 9 8 8 9 9 10 10 11 12 12 12 12 13 14 14 14 13 13 11
4 5 5 3 2 1 3 1 2 5 4 4 5 10 14 10 5 9 13 8 7 8 7 8 10 5 3 5 5 15 19 18 22 20 19 18 18 19 18 19 17 17 16 15 14 13 13 12 12 12 11 12 11 11 9 7 6 5 4 3 3 3 3 4 4 5 6 5 5 5 6 6 6 6 8 9 9 9 9 9 8 9 9 9 9 10 10 11 11 11 11 12 12 12 12 12 11
5 5 5 3 2 1 3 2 3 3 5 5 7 10 12 8 6 9 11 7 6 9 9 9 13 5 3 6 2 13 20 18 22 20 20 20 19 19 18 19 18 19 18 17 16 14 14 13 13 12 12 12 12 12 11 9 8 7 6 5 4 4 3 3 3 4 4 5 4 4 4 5 5 5 6 7 8 8 8 8 8 9 9 8 8 8 9 10 9 9 9 10 11 11 11 11 11
5 4 4 2 3 3 4 4 4 4 5 5 8 13 10 5 7 9 8 6 6 11 11 9 14 11 5 5 2 14 21 19 22 21 21 22 22 22 20 21 21 21 20 19 17 16 16 15 15 14 13 13 13 13 12 12 10 9 8 7 7 5 5 4 3 3 3 4 4 3 4 4 4 4 5 5 6 7 7 7 7 8 8 8 7 7 7 8 8 7 7 8 8 9 9 10 10
4 3 3 2 4 4 6 7 8 4 3 7 11 17 12 5 9 10 6 5 6 11 12 9 13 14 9 5 5 14 20 19 21 21 22 24 26 25 24 24 23 23 23 22 20 19 18 17 16 15 15 15 14 14 14 14 12 12 11 10 9 7 7 6 5 4 3 3 3 3 3 3 4 4 4 4 5 5 5 6 6 6 7 7 6 6 6 6 6 5 5 6 6 7 7 8 9
4 3 3 3 6 5 6 9 10 3 2 9 12 15 12 7 11 12 5 4 6 8 9 9 12 15 12 9 8 13 19 20 20 20 22 25 27 28 27 26 26 25 24 23 22 21 20 18 18 17 16 16 15 16 15 15 14 14 13 12 11 9 8 7 7 5 4 4 3 3 3 3 4 4 5 5 5 4 5 5 5 5 6 5 5 5 5 5 4 3 3 3 4 5 6 6 7
2 3 2 5 6 4 4 7 9 5 3 10 12 12 10 7 12 12 6 4 5 8 10 10 13 16 14 12 10 14 19 20 20 20 21 23 25 27 27 26 26 25 24 23 22 22 21 20 19 18 18 17 17 17 17 16 16 15 14 14 12 11 10 9 9 8 7 6 5 4 4 4 5 5 6 6 6 5 5 5 5 4 4 4 4 4 4 3 3 2 1 1 1 3 4 5 5
2 4 3 5 4 2 3 4 6 7 5 10 13 9 7 8 12 12 8 5 4 12 17 16 14 15 14 14 12 15 20 20 21 20 20 21 22 24 25 25 23 23 23 23 23 23 22 22 21 20 19 19 19 18 18 18 17 17 16 15 14 13 12 11 11 10 9 8 7 6 6 6 6 6 7 7 7 6 7 6 5 4 4 4 3 3 3 3 3 2 2 1 1 1 3 4 4
3 2 2 3 4 2 2 2 3 7 7 10 12 9 8 10 10 12 12 8 6 11 16 17 15 13 13 14 14 16 20 21 21 21 20 20 20 22 23 23 23 23 23 23 23 22 22 22 21 21 21 21 20 20 20 19 19 19 18 17 16 15 14 13 12 12 11 11 10 9 8 8 7 7 8 8 8 8 8 8 7 6 5 5 5 5 5 5 4 4 3 3 3 2 2 2 3
3 1 2 4 3 2 2 1 2 6 9 13 13 9 10 10 7 10 16 15 11 6 7 12 15 14 13 14 15 17 20 21 21 19 18 18 17 18 19 21 22 23 23 22 21 21 22 22 22 22 22 22 21 21 21 21 20 20 19 19 18 17 16 15 14 14 13 13 12 12 11 10 9 9 9 10 10 10 10 9 8 7 6 6 6 6 6 6 6 5 5 5 4 4 3 2 1
3 1 1 4 1 1 2 1 3 5 10 13 12 10 8 9 6 6 16 23 17 8 4 5 11 15 15 15 15 16 17 18 18 17 16 15 14 15 16 19 20 21 22 21 20 20 21 21 22 22 23 23 22 22 22 22 22 21 21 21 20 19 17 17 16 15 15 14 14 14 14 13 12 11 11 11 11 11 11 10 10 9 8 8 8 8 7 7 7 7 7 7 6 6 5 4 3
3 3 3 4 2 2 3 3 5 5 7 10 10 7 5 8 6 4 15 21 18 15 11 6 8 14 17 16 16 16 17 18 18 18 18 17 16 17 18 18 19 21 22 20 19 19 19 20 22 23 23 23 23 23 23 23 23 23 23 23 22 21 19 18 18 17 17 16 16 16 16 15 14 13 13 12 12 12 12 12 11 11 10 9 9 9 9 8 8 9 9 9 8 8 7 6 5
2 5 6 5 3 3 4 4 6 6 6 8 7 3 1 5 3 7 16 17 16 17 16 12 9 12 17 18 17 17 18 18 18 19 19 19 19 20 19 19 20 21 20 20 20 19 18 19 21 23 23 23 24 24 25 24 24 24 24 24 23 23 22 20 19 19 19 18 18 17 17 17 16 15 14 14 13 13 13 13 12 12 11 10 10 10 10 9 10 10 10 10 10 9 9 8 7
6 11 9 6 4 3 3 4 5 6 6 5 6 2 0 4 2 6 9 9 13 16 16 17 13 12 15 18 18 18 18 18 18 19 20 21 21 21 20 20 21 20 19 20 20 20 20 19 20 22 23 23 24 25 25 25 25 26 26 25 25 24 24 23 22 21 20 20 19 19 19 19 18 17 16 16 15 15 15 15 14 13 12 11 11 11 11 11 11 11 11 11 11 11 10 9 8
11 15 9 6 4 4 3 3 4 4 4 2 4 2 1 3 3 7 5 3 7 13 16 17 17 14 13 16 18 19 19 18 19 21 21 22 20 19 19 18 17 17 18 18 19 21 21 21 20 21 22 23 24 25 26 26 26 26 27 27 26 26 25 25 24 23 22 22 21 21 20 20 20 19 19 18 17 16 16 16 16 15 13 12 12 12 12 12 11 11 12 12 12 13 12 12 11
10 9 4 5 7 4 4 2 1 2 2 2 4 0 4 4 6 8 6 4 4 9 14 17 18 16 13 15 17 18 19 19 22 22 21 21 20 19 19 17 17 17 16 17 20 21 21 21 21 21 22 23 25 25 26 27 27 27 28 28 28 27 27 27 27 25 24 23 23 23 22 22 21 21 20 20 19 18 17 17 17 17 15 14 13 12 12 12 12 12 12 13 14 14 14 14 13
5 4 4 2 6 4 4 3 0 2 2 2 4 1 6 8 10 7 5 6 5 9 13 16 19 19 17 16 17 18 18 20 22 21 20 21 21 22 21 19 20 20 18 19 21 21 21 22 22 22 22 23 24 25 26 27 28 28 28 29 29 28 28 28 28 27 26 25 25 24 24 23 23 22 22 22 22 20 19 18 18 18 17 16 14 13 13 13 12 12 13 14 15 16 16 17 16
2 2 2 2 1 4 6 4 1 4 1 1 5 2 6 8 7 5 8 9 7 9 11 13 17 19 20 19 19 19 19 20 20 20 21 21 22 23 23 22 22 22 21 21 21 20 21 22 23 24 24 24 24 25 27 27 28 28 28 28 29 29 29 29 29 29 28 26 25 26 25 25 24 23 23 23 23 23 21 20 19 19 19 18 16 15 16 16 15 15 15 16 17 18 18 19 19
4 2 2 3 3 5 7 3 1 3 2 1 5 2 6 8 6 3 4 9 10 12 12 12 15 18 20 21 21 22 21 21 21 21 21 21 22 23 23 23 23 23 23 22 21 22 23 23 24 25 25 25 25 25 26 27 30 30 28 28 29 29 29 29 30 30 29 29 26 26 25 24 24 23 24 24 24 23 23 23 21 20 19 18 18 18 18 18 17 17 17 17 17 19 21 21 21
4 3 2 2 3 3 4 2 3 1 2 1 2 2 3 4 4 2 4 1 5 10 13 13 15 17 19 20 21 22 22 21 22 22 21 20 20 21 21 22 23 24 24 24 23 24 24 24 24 25 25 26 26 26 26 26 28 30 29 28 29 32 32 30 28 27 28 30 31 29 27 25 24 24 24 24 25 24 23 24 23 22 22 20 21 22 21 21 20 19 18 16 17 19 22 23 22
2 3 2 3 3 2 2 2 4 4 2 1 2 2 6 6 7 5 3 4 6 9 11 11 11 13 14 16 19 20 21 21 22 22 19 19 18 18 19 20 21 23 24 25 25 26 25 25 26 25 25 26 27 27 27 28 27 28 29 28 29 30 31 29 28 27 26 28 31 32 30 27 27 26 26 24 25 26 25 24 23 25 26 22 24 27 26 25 24 22 21 18 17 19 22 23 24
5 2 2 2 3 3 3 3 3 4 3 2 1 3 9 10 11 15 14 10 11 14 14 14 13 13 14 15 17 18 19 21 22 20 18 18 19 18 19 19 21 22 23 24 25 26 26 27 27 26 26 26 26 27 27 28 28 28 29 30 30 29 29 30 30 31 30 30 30 30 29 30 30 28 29 28 25 24 26 27 25 23 26 27 28 29 29 30 28 26 25 22 20 20 22 24 24
9 6 5 4 3 4 5 4 4 1 3 2 4 5 8 10 10 16 18 12 11 16 16 18 18 18 18 19 20 20 21 24 22 20 20 21 21 20 20 21 21 22 23 24 24 26 26 26 27 27 26 26 26 27 28 28 29 29 29 30 31 29 29 30 32 32 33 34 32 30 29 29 30 29 30 30 28 26 27 32 32 24 23 30 31 29 29 32 31 29 28 26 25 25 24 25 26
8 6 5 4 3 2 3 3 5 1 3 3 3 3 8 10 10 15 20 13 11 17 19 20 21 21 23 23 24 25 25 26 24 24 24 24 22 22 22 22 23 23 23 23 23 24 24 24 26 26 25 25 26 27 27 28 29 30 30 30 30 29 28 29 30 31 33 34 33 33 31 27 30 31 30 30 31 30 27 30 34 30 27 32 34 32 30 32 32 31 31 30 30 30 26 25 26
6 6 5 2 1 2 2 2 4 3 1 2 2 4 8 11 10 15 18 10 10 18 19 21 22 22 25 25 26 27 27 28 27 26 25 24 23 21 22 22 23 22 21 21 22 22 22 23 24 24 23 24 25 26 26 27 28 28 29 29 28 27 27 27 27 27 29 31 33 35 33 30 33 33 32 31 31 31 30 29 30 32 34 35 37 37 35 34 33 33 35 36 36 35 30 27 27
5 4 6 3 2 2 3 3 5 5 1 3 4 5 9 11 9 14 18 14 16 20 20 22 24 25 28 28 28 28 29 29 28 28 27 26 25 24 23 23 22 21 20 21 21 21 22 23 23 23 23 24 24 24 25 26 25 25 26 27 27 27 27 26 26 25 26 27 29 31 31 30 31 32 33 33 31 31 32 32 33 33 34 38 41 42 40 37 33 33 38 40 41 39 35 32 30
4 4 5 3 2 1 1 2 5 4 2 1 2 4 8 8 7 10 14 14 16 18 19 22 24 27 31 30 30 30 31 31 30 29 26 25 25 25 25 24 22 22 22 22 22 22 22 22 22 22 23 23 23 24 24 24 24 24 25 26 27 27 28 27 26 26 26 27 28 29 32 31 29 31 32 32 32 32 31 31 34 34 32 36 40 39 38 37 35 37 39 42 44 44 41 37 33
1 3 6 4 3 4 3 1 2 3 4 3 3 4 6 5 5 7 6 5 9 10 12 16 19 21 24 25 26 26 27 27 26 22 17 15 15 17 18 18 19 20 20 21 22 22 21 21 22 23 23 24 24 24 23 23 24 24 25 26 28 29 30 30 29 29 28 28 29 30 33 33 32 32 32 31 32 33 34 33 33 34 33 34 36 36 37 38 40 42 42 43 46 48 47 42 37
1 3 6 6 7 6 2 2 4 4 4 4 5 3 5 5 5 7 5 6 8 8 9 17 19 17 18 20 21 21 21 21 21 19 14 8 6 7 9 12 14 15 16 17 19 20 20 20 21 22 23 23 23 23 23 23 23 24 25 26 28 29 30 31 30 28 28 27 28 29 30 30 31 33 33 34 33 32 35 37 36 37 37 36 37 38 39 41 43 43 42 45 47 48 48 48 43
2 4 5 6 7 8 6 5 4 1 1 2 3 2 4 7 5 8 6 8 11 10 9 16 19 17 17 18 19 20 20 18 16 16 13 8 5 5 7 10 12 13 13 14 15 17 18 18 17 18 19 20 20 21 21 22 23 23 24 24 25 27 28 29 27 26 26 26 26 27 28 29 29 30 31 33 33 32 34 36 37 38 39 39 39 39 39 41 43 42 42 44 46 47 49 52 48
3 3 6 8 8 8 7 6 4 2 3 4 4 4 2 5 6 6 6 7 10 11 9 13 15 14 12 13 16 16 17 15 11 10 11 11 8 5 6 7 9 11 12 13 13 13 14 14 14 15 16 17 17 18 19 20 21 21 22 23 24 25 25 25 25 25 26 26 27 27 27 28 28 29 29 31 32 32 34 36 38 40 41 41 42 42 41 42 41 40 39 41 45 48 49 53 51
3 3 6 7 7 7 5 6 4 1 1 4 5 2 1 6 7 5 5 4 9 10 9 10 12 12 9 6 8 9 9 8 6 5 6 7 5 2 2 3 5 7 8 10 10 11 12 12 13 14 15 15 16 17 17 18 19 20 21 22 23 24 23 23 24 25 26 27 27 27 27 28 28 28 29 30 32 33 35 37 38 39 40 42 45 46 45 45 44 42 38 37 43 48 48 51 52
4 6 7 7 6 6 5 5 4 2 2 4 5 2 0 5 7 4 2 2 7 8 8 8 9 11 11 8 3 2 3 5 6 7 9 10 8 6 5 4 3 3 3 4 5 6 8 9 11 12 13 14 14 15 16 17 18 20 21 22 23 22 22 23 24 25 26 27 27 28 28 28 28 29 30 31 32 33 35 35 36 37 38 39 42 43 43 44 45 44 40 37 41 46 48 52 53
10 7 7 7 7 6 4 3 4 4 2 6 6 2 0 3 7 4 3 4 6 4 5 7 8 11 12 11 10 9 11 12 12 12 12 11 8 6 5 5 5 4 3 2 1 2 4 6 7 8 9 10 11 13 14 15 17 19 20 21 21 21 21 22 24 25 26 26 27 27 27 27 28 29 30 31 32 32 33 33 33 35 37 38 39 40 40 41 43 44 44 41 41 42 45 49 52
7 4 5 5 4 5 5 5 4 2 4 6 4 3 1 3 6 4 4 6 6 4 5 7 7 10 10 10 10 10 12 13 12 11 10 8 6 4 5 5 5 4 4 2 1 1 2 3 4 5 5 6 8 9 11 13 14 16 18 19 20 20 21 22 24 25 25 25 26 25 26 27 27 28 29 30 31 31 31 31 31 32 34 36 38 40 40 40 41 43 45 45 45 43 43 46 49
5 5 6 5 2 3 3 3 1 2 5 4 2 1 2 5 8 8 10 10 6 7 8 8 9 12 11 8 7 9 11 11 10 9 7 6 4 4 5 4 4 3 2 1 1 1 2 3 4 5 6 6 7 7 9 10 12 13 15 17 18 19 20 22 23 23 23 23 24 24 25 26 26 27 28 28 28 28 28 29 30 30 31 34 36 39 41 42 42 42 44 45 46 46 45 46 47
4 5 5 4 3 2 2 4 2 4 4 3 3 2 2 5 6 9 14 11 6 7 10 11 12 14 14 9 5 7 8 7 5 5 6 5 4 4 4 3 2 2 2 2 2 3 3 4 5 6 7 8 8 9 10 10 11 12 14 15 16 18 19 20 21 22 22 22 22 23 23 24 24 24 24 24 23 24 26 27 28 30 31 32 34 37 40 43 44 45 45 45 46 47 46 47 48
2 3 5 5 5 4 4 4 3 4 3 3 3 1 3 3 2 6 11 13 12 11 13 15 15 14 13 10 4 1 2 3 2 2 4 4 4 4 4 3 1 1 2 2 2 3 3 4 5 6 7 8 9 10 11 11 11 12 14 15 16 18 19 19 20 21 20 20 21 21 21 21 21 20 20 20 20 21 23 24 25 28 29 31 33 35 38 41 44 46 47 48 47 47 46 46 47
1 2 5 3 4 5 3 3 5 3 1 2 2 3 5 4 5 9 8 10 12 10 10 11 10 8 8 9 6 2 1 2 1 2 3 4 4 4 4 3 3 3 3 2 3 4 6 8 9 10 10 10 11 11 12 13 13 14 15 15 17 18 19 20 20 20 20 19 19 20 20 19 19 18 18 18 18 19 20 21 23 24 26 29 31 34 36 38 41 44 47 49 50 49 47 47 46
2 2 3 4 4 7 5 2 0 3 0 3 1 4 6 4 6 9 6 7 9 7 6 6 6 7 7 7 5 4 3 2 3 3 2 4 5 4 4 5 5 5 5 4 6 8 10 11 11 11 12 12 13 13 14 15 16 16 17 17 17 18 19 19 19 20 19 19 20 20 19 18 18 17 17 17 17 18 19 20 21 22 24 25 26 28 31 34 37 40 42 45 47 46 46 46 46
4 3 5 4 3 5 4 2 3 4 2 4 1 4 5 2 4 7 7 5 9 7 6 5 6 7 6 5 7 5 3 4 6 4 3 6 7 7 7 8 7 6 6 6 8 9 9 9 9 9 10 11 12 13 14 16 17 18 19 19 20 20 20 21 21 21 20 21 21 21 19 18 16 16 16 16 17 18 19 20 21 23 23 24 25 26 27 29 32 35 37 38 38 38 40 42 44
4 5 4 4 3 2 2 2 1 1 2 4 4 4 3 4 5 4 3 4 7 8 7 5 7 8 4 6 7 4 4 7 7 6 7 8 8 10 10 9 8 7 7 7 8 7 7 7 8 8 8 8 9 10 12 14 15 17 18 19 20 21 22 23 23 22 22 23 23 22 20 17 16 16 16 16 16 17 18 20 21 23 24 25 26 26 27 27 28 32 35 36 36 37 39 41 43
4 4 3 3 3 4 2 2 4 3 2 3 4 4 3 6 6 5 7 7 6 7 6 6 10 9 4 6 5 8 10 11 12 11 12 12 13 13 12 10 9 8 7 6 5 6 7 8 8 8 8 7 7 8 10 13 15 16 17 18 19 21 22 23 24 24 24 25 24 22 20 18 17 16 16 17 17 18 19 20 22 23 24 25 27 27 28 27 27 30 33 36 38 39 40 42 42
3 4 3 1 2 3 2 1 2 4 4 2 2 4 5 6 4 7 10 9 8 8 6 7 8 6 1 3 9 14 15 15 16 16 16 16 15 13 11 9 7 6 5 6 7 8 9 10 11 11 11 10 8 8 10 13 15 16 18 18 19 20 21 23 25 26 26 26 25 24 21 20 19 18 18 18 18 19 20 21 23 24 25 25 27 28 28 28 29 30 31 33 36 39 42 43 43
6 5 6 6 4 4 3 2 1 2 3 4 3 4 8 6 4 7 8 7 6 6 5 4 4 5 5 8 13 16 17 18 18 17 16 14 12 9 8 8 7 7 7 8 10 12 14 14 15 15 14 14 12 12 13 14 16 17 18 19 20 21 21 23 25 27 27 27 27 25 24 23 22 20 20 20 20 21 22 23 24 25 27 27 27 27 28 29 30 31 32 32 33 35 39 41 43
Wind_Direction
274 207 192 234 325 263 339 37 94 7 66 86 308 156 232 218 171 162 146 180 175 212 189 159 151 155 158 163 178 146 122 150 161 132 183 164 143 149 154 159 161 158 155 149 149 145 141 141 140 139 136 127 118 110 96 81 69 64 59 57 60 64 69 75 81 85 90 95 99 98 89 82 73 65 70 80 87 94 95 95 97 94 92 89 89 91 91 89 86 86 86 85 85 85 87 89 91
237 186 142 196 311 261 326 47 86 342 53 94 250 172 249 324 142 182 178 207 193 142 136 136 141 150 140 122 127 104 108 145 153 136 139 146 145 152 158 163 161 158 158 152 153 149 145 144 146 145 139 132 123 111 94 80 70 65 60 58 61 65 70 75 79 85 90 98 104 101 97 95 85 76 79 81 79 89 96 95 96 93 92 91 90 91 90 87 85 83 81 81 79 79 80 82 85
188 160 125 196 292 55 79 49 84 76 79 150 253 246 228 149 193 204 200 201 133 123 124 126 127 132 121 108 99 95 146 167 162 142 142 150 152 156 161 163 160 160 159 155 156 153 148 144 148 146 142 137 125 110 93 80 72 67 61 57 60 65 70 76 79 85 93 101 108 108 107 105 96 91 83 78 75 86 97 97 97 95 94 93 92 92 91 89 86 83 83 80 73 73 77 80 82
138 148 136 152 93 57 70 51 117 120 127 189 248 258 213 179 203 217 192 150 129 121 122 128 115 101 67 96 92 97 133 164 169 156 153 157 157 159 160 161 161 160 160 159 158 154 150 147 149 148 143 138 125 109 94 83 77 70 62 58 59 64 69 74 78 85 94 99 107 110 108 106 104 103 84 74 80 91 98 98 96 95 94 93 91 91 90 87 83 80 80 75 69 72 79 85 85
153 151 152 152 93 82 90 72 104 115 185 185 175 252 230 198 196 196 167 153 144 110 102 147 120 103 90 88 82 101 129 148 161 160 157 157 159 161 160 161 161 160 161 161 159 156 153 151 151 150 143 140 130 108 98 90 83 74 63 59 58 63 69 73 77 82 91 99 103 103 104 110 110 102 78 70 87 101 101 99 96 95 94 92 90 89 87 84 78 74 72 71 72 77 83 89 89
158 148 143 118 89 116 119 111 149 168 215 168 150 239 227 207 184 163 160 165 176 313 224 193 168 137 101 72 78 123 126 141 158 157 156 157 160 163 163 163 161 160 163 163 163 161 157 156 155 153 148 147 138 112 104 95 85 78 65 60 60 64 70 72 75 79 86 101 109 107 106 112 107 94 80 80 100 110 105 101 97 94 93 94 93 91 88 83 77 73 72 74 77 82 85 88 90
161 159 108 102 79 64 108 148 193 195 203 167 165 212 197 187 171 152 153 168 212 259 226 204 156 135 108 86 105 129 123 145 156 152 155 160 162 166 167 164 163 162 165 167 165 164 162 162 160 158 158 153 144 126 114 105 93 83 71 63 61 64 70 72 73 76 81 95 109 113 110 106 101 94 84 89 108 118 111 104 98 95 95 95 94 92 91 84 79 77 76 77 79 83 85 88 90
161 168 69 106 58 32 87 122 202 187 174 236 237 220 180 167 164 156 158 168 187 205 199 170 145 108 144 134 141 147 131 151 155 154 159 163 165 170 171 167 166 166 170 171 167 167 166 167 166 165 166 161 151 142 129 117 105 93 80 67 62 62 69 73 74 75 77 82 93 103 105 102 101 99 87 88 110 124 116 108 101 98 98 95 93 92 91 86 83 82 81 80 80 82 84 86 86
156 163 68 90 83 40 48 56 221 221 275 273 273 238 171 163 164 157 158 167 175 190 185 166 141 356 169 142 145 157 152 159 159 159 162 166 170 172 174 172 170 170 173 174 170 169 169 171 172 172 173 170 161 153 142 127 114 103 89 75 66 64 69 76 77 77 78 77 80 89 98 101 103 102 89 90 115 129 120 111 103 100 97 91 90 90 89 87 86 86 84 82 82 82 82 83 82
140 87 102 81 88 52 16 294 248 245 267 272 269 213 164 165 167 158 155 152 174 176 174 173 310 142 157 143 144 158 166 164 163 165 167 171 174 176 176 175 174 174 177 177 175 173 171 174 175 177 181 180 173 164 152 138 123 110 99 88 73 70 74 79 83 82 82 80 78 79 88 95 99 100 89 93 117 132 125 112 99 92 86 83 88 90 90 91 90 88 85 84 82 81 81 81 82
115 49 99 74 76 93 191 215 278 279 285 306 288 194 170 171 165 156 151 143 165 160 167 180 230 149 141 148 163 168 171 168 170 170 171 174 176 179 180 178 175 178 183 183 180 178 175 177 179 181 186 188 186 177 164 151 132 116 106 98 83 78 78 80 85 87 86 83 81 77 79 84 86 89 84 91 114 127 122 107 93 81 77 81 89 92 93 93 91 89 86 84 82 79 79 79 83
161 26 79 82 129 189 197 172 278 297 316 329 233 187 180 175 167 175 165 155 167 165 178 188 194 158 130 179 179 178 174 171 172 175 178 177 178 180 183 182 177 180 187 190 187 184 181 182 185 186 191 195 196 191 181 167 146 126 116 109 93 83 79 79 81 86 88 84 82 77 75 78 79 82 81 91 109 119 114 103 92 82 80 85 89 92 94 94 91 89 87 83 79 77 76 77 81
167 120 95 98 160 158 157 143 272 329 332 280 194 179 181 180 195 202 173 157 169 162 189 199 197 168 144 203 190 184 179 177 173 176 181 177 180 183 185 184 181 184 188 194 195 191 187 186 191 193 196 200 203 201 196 187 170 151 133 123 107 90 83 79 77 80 84 83 81 78 74 74 76 80 84 94 107 113 112 105 97 90 90 93 93 96 99 97 93 90 86 81 78 76 75 74 78
149 129 113 114 90 108 146 132 192 142 259 256 190 175 180 187 224 208 174 155 179 172 186 201 189 172 169 191 201 190 180 181 177 175 180 180 184 185 188 187 187 189 188 195 199 199 194 191 196 199 202 204 207 206 204 202 189 181 166 147 129 108 93 84 80 78 80 84 82 79 76 73 74 79 87 97 107 111 113 112 106 98 99 103 103 105 105 102 97 92 86 81 78 75 73 72 73
144 117 97 102 66 60 165 146 130 142 234 233 171 181 182 196 237 204 183 166 186 186 181 185 178 180 198 184 207 193 182 182 179 176 180 182 186 188 191 191 191 192 191 195 199 204 201 198 200 204 209 209 210 208 208 208 200 196 190 186 167 141 118 101 94 89 86 91 92 91 87 85 84 85 93 100 107 110 114 116 113 108 107 110 109 110 108 105 100 93 88 81 77 72 69 68 68
136 119 78 86 124 189 173 151 112 122 252 209 166 180 178 209 220 190 189 172 179 185 181 180 183 195 191 177 190 187 186 187 181 178 181 185 189 190 195 196 196 196 194 196 199 204 205 205 205 207 212 213 214 211 212 213 210 206 201 205 198 181 162 139 128 117 104 105 111 118 110 107 103 99 101 105 111 113 116 118 117 115 115 116 113 113 109 106 104 97 91 83 77 71 67 65 63
120 109 72 87 166 200 180 166 162 163 239 213 175 179 171 211 201 182 187 182 188 184 184 192 195 203 198 189 193 186 190 192 185 180 182 187 191 192 196 199 201 200 197 198 200 204 206 209 209 212 215 216 217 214 215 216 217 215 209 210 208 205 192 180 173 158 135 124 123 138 139 131 124 117 115 116 120 120 122 123 124 122 121 122 120 118 113 110 111 104 98 89 81 74 68 66 63
117 102 99 152 178 200 186 178 187 165 197 198 183 182 177 190 182 174 173 181 196 190 194 205 205 210 217 218 202 192 194 194 190 185 184 188 193 196 198 200 204 204 201 200 201 205 207 210 211 213 216 217 218 217 217 218 220 220 217 215 213 213 207 204 200 192 179 157 142 150 162 164 154 145 140 138 137 136 136 135 135 130 126 130 128 127 123 122 122 114 104 93 85 76 71 70 68
113 99 110 205 198 200 189 176 185 171 164 181 178 183 187 198 179 172 181 184 181 191 207 214 212 215 218 214 201 196 197 197 197 192 190 190 193 198 200 201 206 208 206 204 204 206 208 210 212 213 216 217 219 220 219 220 222 223 223 222 220 218 215 214 213 214 209 196 184 179 185 194 186 177 170 164 164 164 162 161 157 145 140 144 143 143 139 138 136 127 114 95 84 75 70 72 74
119 106 123 239 214 202 196 182 191 199 168 163 170 183 191 197 178 177 190 178 185 207 209 208 213 215 214 208 201 197 198 200 201 200 198 196 197 201 202 203 207 209 210 209 208 208 210 211 213 214 216 217 220 222 223 222 225 227 227 227 227 224 221 221 221 223 221 217 212 208 209 212 210 204 196 189 186 189 191 191 189 170 161 163 157 156 154 155 161 165 154 101 70 64 61 64 74
153 133 177 234 195 154 191 195 202 206 187 166 166 169 187 188 178 185 174 147 243 234 216 213 218 214 206 204 201 196 198 202 203 204 205 203 203 203 205 207 210 213 215 215 213 212 213 214 215 216 217 219 221 223 225 227 228 231 231 231 231 228 227 226 226 227 227 228 224 222 222 221 225 222 215 209 203 203 205 212 215 204 192 191 188 184 186 191 199 212 235 264 304 13 34 42 60
138 165 250 200 151 107 171 191 193 200 187 166 160 158 180 177 180 195 180 173 231 237 226 224 228 221 211 210 204 195 198 204 205 207 209 209 209 207 208 209 211 216 219 221 219 217 217 217 218 218 219 221 222 224 227 230 232 234 236 236 235 231 229 229 230 231 231 232 231 231 230 229 231 231 227 219 217 214 213 219 224 220 213 212 215 213 212 217 225 233 243 258 275 303 346 9 32
148 278 303 170 155 80 129 175 174 184 176 167 166 170 174 168 189 207 202 216 226 239 245 232 230 224 219 216 209 202 202 206 210 212 212 211 210 209 209 209 213 217 221 225 224 222 220 220 221 221 223 224 224 226 228 230 233 236 238 239 239 235 232 232 231 231 233 236 236 237 236 236 235 235 235 227 224 223 222 223 225 226 221 220 225 228 230 230 237 242 246 253 264 277 286 300 320
126 167 255 172 185 54 87 101 160 170 178 174 170 174 172 175 193 211 220 231 232 239 262 243 231 221 217 217 215 216 213 213 217 218 218 217 216 214 214 214 217 220 224 228 227 225 223 223 224 224 226 228 228 228 230 232 233 236 238 240 241 238 236 235 235 234 235 236 238 240 239 239 237 237 238 235 230 228 230 229 225 226 226 227 229 233 238 240 244 247 252 255 260 270 274 278 272
100 156 184 152 122 115 89 80 141 153 168 169 166 168 184 193 200 237 238 239 235 234 240 256 239 219 218 219 220 222 220 221 221 219 219 220 221 221 221 222 223 225 227 229 230 229 226 225 226 227 229 230 231 231 232 233 234 237 238 240 241 241 239 237 237 237 237 238 240 241 242 241 240 239 238 238 236 232 233 233 230 228 230 232 234 237 241 245 249 251 255 257 259 264 268 276 276
166 145 154 140 94 110 112 98 120 132 145 157 164 151 174 192 221 265 252 250 241 234 235 243 247 228 221 223 226 225 224 226 223 221 221 219 221 223 224 225 227 229 230 232 234 234 232 229 229 230 231 232 233 233 234 235 235 237 239 240 241 242 242 240 238 238 238 239 241 243 244 245 244 242 240 238 238 237 237 237 234 231 232 235 237 240 243 248 251 252 256 259 262 264 266 270 270
151 127 112 99 80 91 119 124 113 119 126 146 171 168 207 164 184 258 258 258 238 231 232 233 240 239 227 224 227 227 229 231 228 226 223 221 222 225 226 226 230 232 233 234 235 237 237 236 234 233 234 234 235 236 237 237 237 238 241 243 242 243 244 243 240 238 239 239 240 243 244 245 245 243 242 239 239 239 238 239 239 238 235 235 237 241 244 247 250 252 255 258 262 265 266 266 265
133 125 98 36 39 69 66 114 120 111 110 113 152 168 305 131 184 238 246 274 230 223 228 230 232 236 231 224 225 227 231 232 231 230 228 228 229 230 231 232 237 237 238 239 239 239 240 241 240 238 237 237 237 238 239 241 240 240 241 244 245 244 244 245 244 240 239 240 240 241 243 244 244 244 243 241 241 241 241 240 239 239 238 238 240 243 246 249 250 253 255 256 258 260 262 261 259
122 117 108 355 7 23 9 46 109 101 98 104 114 59 292 224 225 235 230 244 234 221 225 228 230 232 232 225 224 227 232 233 233 234 235 236 239 239 240 243 245 245 248 248 245 244 245 246 246 244 242 242 241 241 242 244 244 242 242 245 247 247 246 246 247 245 242 240 240 241 242 243 243 244 245 244 242 241 242 242 243 242 240 240 240 243 249 251 252 257 260 258 258 258 258 257 254
114 76 112 28 9 348 326 358 26 132 109 137 129 234 278 256 246 238 227 233 233 227 226 229 231 232 233 230 228 229 232 235 237 240 241 240 241 242 244 245 245 248 252 250 249 250 250 250 251 250 248 246 246 245 245 247 248 246 245 245 246 248 249 249 250 250 247 243 242 242 242 243 244 244 244 246 246 244 243 242 245 247 246 244 243 244 248 251 252 255 261 260 257 256 255 254 251
91 53 69 58 128 263 305 342 132 141 161 174 127 186 264 270 279 258 235 233 228 229 223 227 233 233 235 235 235 237 238 241 244 245 244 245 244 243 245 246 246 249 251 251 253 254 254 254 254 254 254 253 251 249 248 247 249 251 250 249 248 248 248 250 252 253 252 249 245 244 245 244 243 244 246 247 247 248 248 247 246 249 252 252 251 250 247 247 249 249 253 257 255 253 252 251 248
41 100 309 343 168 255 310 347 63 146 184 112 116 209 268 269 291 342 246 232 232 242 241 241 243 240 238 238 239 243 246 246 248 248 246 246 247 247 248 247 248 250 252 254 256 256 256 256 256 256 256 256 256 255 253 248 247 251 252 248 250 252 252 250 248 250 255 257 256 253 253 252 247 245 246 249 253 253 251 252 251 249 250 252 254 255 253 254 256 256 254 254 255 254 252 249 247
7 108 198 269 179 261 311 347 348 64 147 31 96 220 273 280 269 51 60 250 238 256 264 261 255 249 244 243 245 248 251 250 250 250 248 247 248 250 251 250 251 252 255 257 257 258 258 258 259 259 258 259 259 259 259 255 250 252 254 247 242 248 254 254 251 249 248 252 258 259 259 260 258 254 249 248 253 256 258 259 257 253 251 254 255 252 253 255 255 258 257 256 257 257 254 250 247
310 54 116 229 198 212 275 286 332 25 116 249 25 247 250 274 274 262 297 320 300 288 284 279 267 257 250 248 250 251 254 253 250 248 248 250 251 253 255 256 255 254 256 256 257 258 258 259 259 259 260 260 260 259 259 259 256 254 256 254 248 249 256 261 261 258 251 247 251 255 258 260 261 261 261 257 251 250 258 262 261 258 254 256 258 252 248 247 246 249 250 252 257 261 258 254 251
184 171 149 225 226 218 248 244 289 17 76 210 347 289 263 277 287 280 279 284 287 285 285 283 275 265 258 254 253 252 253 253 249 248 249 251 253 255 258 259 259 258 257 257 256 256 255 256 256 256 257 256 257 258 258 257 255 253 251 252 253 252 251 252 255 258 258 256 255 256 258 258 259 260 261 263 260 255 256 256 255 258 259 260 258 252 250 247 244 246 244 244 253 259 258 254 253
168 173 147 157 182 231 246 251 277 0 109 230 243 251 275 285 289 288 285 282 279 280 279 276 272 268 264 259 257 255 256 257 256 257 257 255 255 257 257 258 259 259 258 257 256 254 253 252 253 253 252 253 254 254 254 253 252 251 248 247 248 248 244 243 245 247 250 256 259 261 259 255 256 259 260 260 260 262 263 257 248 247 264 268 254 247 257 255 248 247 245 244 252 257 254 249 248
136 129 114 144 167 245 255 266 305 3 148 242 251 259 279 277 276 280 281 284 277 274 273 272 269 265 263 260 260 260 259 261 263 264 264 263 262 259 257 256 255 256 255 255 253 251 251 250 251 251 251 252 252 251 252 252 252 251 250 250 251 251 248 244 244 243 242 246 251 255 258 257 255 257 258 258 259 263 267 263 253 248 265 274 259 251 263 262 251 250 249 245 250 254 251 248 247
103 130 131 132 185 238 261 261 315 357 180 250 4 331 279 268 271 273 277 280 264 262 261 264 265 262 261 261 261 262 262 264 266 267 268 268 267 263 259 256 254 255 254 253 252 249 248 248 248 249 250 251 252 254 254 254 255 256 257 258 259 260 258 255 254 251 247 243 242 246 250 250 250 254 256 256 258 261 262 263 260 257 262 268 263 256 259 256 249 252 253 249 248 248 247 248 248
89 117 130 143 204 244 287 299 330 0 334 270 353 345 282 269 269 269 268 261 258 262 258 260 264 262 261 260 260 262 264 265 266 267 269 270 270 267 262 258 257 257 255 253 251 249 247 246 247 248 250 252 254 257 258 259 260 260 262 262 262 262 262 262 262 260 257 252 249 250 251 246 241 245 253 255 255 255 256 257 258 258 260 264 263 257 255 251 248 256 259 255 251 247 243 243 245
94 111 131 170 235 160 229 288 330 1 54 279 324 318 285 286 293 278 269 262 264 267 262 260 259 259 261 262 263 264 265 266 268 270 274 275 271 265 261 259 259 257 254 251 249 250 249 249 251 252 252 255 256 258 261 263 264 262 261 259 259 259 259 259 258 258 257 256 254 252 255 256 250 246 248 251 254 256 257 257 257 259 264 267 264 258 255 252 257 267 267 259 255 250 243 241 241
84 141 139 160 196 175 195 276 343 357 22 30 17 331 295 312 323 290 289 300 281 277 276 269 260 258 263 265 265 264 264 267 271 276 286 285 265 253 254 255 255 254 251 250 249 249 251 252 254 255 255 256 258 260 262 263 262 261 259 257 254 253 254 253 252 253 254 253 253 250 250 254 254 253 252 251 253 256 260 262 262 265 267 267 264 262 262 263 268 273 270 264 261 255 247 244 243
244 209 174 172 170 158 147 66 63 36 2 355 26 359 291 316 314 273 305 345 305 299 296 276 270 268 268 269 269 268 268 270 275 281 288 288 249 226 241 248 249 249 247 247 245 244 244 246 250 252 254 256 258 261 262 262 262 261 260 258 256 255 256 256 256 260 261 262 263 261 259 257 254 252 251 251 251 251 256 259 261 264 264 262 264 264 264 266 269 270 269 265 262 257 250 245 245
184 224 169 147 129 123 126 110 86 90 238 322 43 121 264 310 297 268 311 334 307 307 293 278 283 288 284 282 280 279 277 274 276 279 271 253 236 233 246 251 247 240 236 236 236 236 237 240 243 246 248 250 254 257 258 260 262 262 263 263 263 263 263 265 268 270 270 271 271 268 267 265 262 256 252 251 251 248 249 252 255 258 260 260 263 265 267 269 269 267 267 267 264 260 253 246 245
192 216 127 122 117 126 136 107 93 200 232 329 11 110 221 293 270 272 327 332 308 306 294 293 308 313 305 292 283 281 278 269 264 266 250 232 232 245 248 250 243 229 224 224 223 225 229 231 235 236 239 243 246 250 254 258 262 265 267 268 267 267 268 271 273 271 270 270 268 267 266 265 264 263 261 258 256 253 250 250 252 254 259 262 263 262 266 271 268 263 264 265 264 261 255 249 246
230 187 114 117 117 122 119 94 93 339 339 308 319 48 176 268 274 305 347 321 291 294 289 296 320 339 348 320 284 281 274 253 228 224 215 194 174 141 163 219 225 216 215 216 217 220 222 225 228 231 234 239 242 246 251 255 260 264 266 268 268 269 271 272 270 268 267 266 265 265 265 264 263 263 263 262 261 258 254 254 254 255 257 260 261 259 262 266 261 257 261 265 265 262 257 251 248
172 142 95 82 76 81 81 85 103 45 17 248 269 353 170 264 286 314 2 264 257 274 281 284 317 357 21 29 32 62 95 119 124 123 126 126 116 104 107 123 142 161 182 199 213 223 229 233 235 237 239 241 245 247 251 255 258 261 263 265 268 270 270 270 269 267 265 265 264 264 263 264 265 264 264 264 262 261 259 258 256 255 256 256 257 259 262 263 258 255 260 268 269 264 258 251 249
141 116 73 64 37 36 51 54 82 60 325 254 258 305 77 267 283 261 204 219 219 249 294 295 335 13 30 41 59 84 94 98 102 106 113 113 105 102 108 108 105 103 108 121 162 224 244 251 250 252 252 252 255 255 257 259 260 262 264 266 268 269 270 268 267 266 266 266 266 267 268 267 267 266 266 265 265 264 264 263 259 255 256 257 257 259 262 263 260 260 264 267 268 265 261 255 251
113 87 87 82 8 12 24 2 40 87 257 261 271 296 160 215 264 253 242 256 227 211 259 273 313 349 9 32 55 80 92 92 91 95 105 108 99 101 110 108 107 106 112 126 151 244 283 294 295 296 291 284 278 274 274 272 271 272 271 271 271 270 269 266 265 266 266 267 268 269 269 267 266 265 265 264 264 265 265 265 264 259 257 256 257 258 260 261 262 262 264 265 265 263 262 259 256
72 96 103 90 13 14 0 319 353 215 241 267 274 255 209 230 251 259 264 267 236 217 236 249 279 314 339 5 43 75 90 90 87 87 90 98 98 100 112 116 120 121 121 120 80 6 355 347 344 342 336 327 315 306 299 293 290 288 283 279 275 272 269 266 266 266 265 266 266 267 265 265 265 263 263 264 264 266 265 264 264 262 260 256 255 255 256 259 261 262 262 263 263 261 261 260 259
123 135 126 124 118 88 270 266 288 261 256 292 281 249 263 267 261 249 251 257 247 240 252 262 274 295 315 329 27 75 85 78 77 80 72 87 110 116 127 135 130 108 72 53 35 13 1 347 338 333 326 321 316 312 310 308 304 297 290 285 279 274 270 267 266 265 264 264 262 262 262 261 263 263 264 265 264 263 262 262 261 260 260 258 256 255 254 256 258 260 262 262 262 261 261 261 261
163 158 123 140 153 148 207 219 207 239 274 307 297 264 200 210 267 240 241 262 274 264 262 267 270 282 301 308 322 85 97 33 30 94 71 80 112 132 151 156 142 101 71 48 22 8 5 356 347 342 332 324 319 314 312 309 304 299 293 289 285 279 274 269 267 265 262 261 259 259 259 259 261 263 263 263 261 260 260 262 263 262 262 260 259 258 256 255 254 255 257 259 261 262 261 262 261
229 126 104 154 184 138 135 179 176 175 332 304 265 243 216 207 281 275 261 274 278 268 265 268 259 256 274 288 304 313 300 328 278 157 92 92 118 145 167 164 152 124 100 81 56 39 29 24 21 16 8 357 348 338 330 322 313 307 300 294 287 281 276 271 268 266 263 260 258 256 255 256 257 257 259 261 262 263 264 263 264 264 264 263 262 262 260 258 255 253 253 254 257 259 260 262 260
161 121 163 210 167 111 111 191 42 78 231 271 229 253 287 325 297 293 304 288 284 286 278 262 235 223 247 281 332 26 41 83 173 175 118 123 134 153 166 154 147 131 111 87 61 46 36 32 29 24 17 7 358 348 340 334 328 321 314 305 295 286 281 277 272 267 263 259 255 252 251 251 252 255 259 263 266 269 271 272 273 273 273 272 271 268 265 263 259 255 253 252 254 257 259 260 260
120 170 201 187 121 93 110 166 7 44 240 277 285 245 286 333 273 314 352 300 275 279 272 265 248 232 247 314 360 24 67 132 174 192 149 138 143 152 152 140 132 118 95 73 56 47 39 32 25 20 14 4 353 341 333 330 327 325 319 312 305 295 286 280 274 268 262 257 253 250 250 250 252 257 259 263 268 272 275 278 282 284 285 286 284 280 275 270 264 260 257 255 254 258 260 260 260
116 172 161 118 136 154 94 137 165 132 237 278 303 282 262 201 227 303 344 242 245 257 267 275 252 235 260 343 6 43 103 129 154 159 139 133 134 134 131 121 110 95 83 72 60 48 34 18 9 5 1 358 346 329 320 316 312 310 309 307 302 295 287 279 273 267 261 257 254 253 253 252 253 256 259 262 266 271 276 280 284 287 289 291 291 288 284 277 269 262 260 257 254 254 257 260 261
60 106 107 80 127 160 156 148 165 173 199 256 311 324 265 224 216 214 220 225 225 235 253 255 236 230 291 351 54 105 112 114 121 124 118 114 113 112 107 99 91 82 72 56 35 16 3 353 345 340 335 335 331 318 309 301 296 294 295 297 297 291 284 277 271 266 261 257 256 257 256 255 256 257 260 264 268 272 276 280 284 287 290 292 293 293 290 285 277 268 262 258 254 251 252 256 261
103 116 148 172 74 108 156 106 116 142 161 195 281 300 270 247 210 198 215 226 215 210 228 244 234 223 282 44 104 113 112 111 111 110 108 106 104 99 88 74 59 47 27 6 357 349 344 340 334 329 325 319 311 304 300 294 289 288 288 290 293 290 283 276 271 267 263 260 258 258 258 258 258 258 262 267 271 275 279 282 285 287 290 292 293 294 293 289 284 278 270 263 257 253 252 255 259
159 172 184 178 150 122 151 241 273 113 149 171 177 265 267 247 209 203 212 229 233 223 226 230 192 153 133 114 113 114 113 111 110 107 104 102 96 80 52 32 22 15 1 348 344 339 335 333 328 324 322 318 313 308 304 300 292 286 286 288 290 290 284 278 274 271 267 264 262 262 261 260 259 260 264 267 271 275 279 282 285 287 290 292 292 294 293 290 287 282 277 271 264 258 255 255 257